Location: Grange Verzio
(44.5000°N, 6.9833°E)
Time: 18:00:22
(UTC+00:00)

Cosmos 1709 Rocket - Pass Details

Date: 01 February 2023
Orbit: 948 x 1001 km, 82.9° (Epoch: 30 March)

Event Time Altitude Azimuth Distance (km) Brightness Sun altitude
Rises 18:42:45 0° 357° (N) 3,660 7.0 -21.9°
Reaches altitude 10° 18:45:25 10° 4° (N) 2,703 6.2 -22.4°
Enters shadow 18:50:04 39° 47° (NE) 1,408 4.5 -23.2°
